This is the latest recevied weather packets stored in our database for station/object K9NZF-2. If no packets are shown the sender has not sent any weather packets the latest 1 day(s).
| Time | Temp. | Humidity | Pressure | Rain* | Wind** | Luminosity | Snow |
|---|---|---|---|---|---|---|---|
| 1777962060 | 13.89° C | 87% | 969.5 hPa | 3.3 mm | 2.24 m/s, 297° | - | - |
| 1777962004 | 13.89° C | 87% | 969.4 hPa | 3.3 mm | 2.24 m/s, 332° | - | - |
| 1777961943 | 13.89° C | 87% | 969.3 hPa | 3.05 mm | 2.24 m/s, 322° | - | - |
| 1777961881 | 13.89° C | 86% | 969.4 hPa | 3.05 mm | 2.68 m/s, 307° | - | - |
| 1777961831 | 13.89° C | 85% | 969.3 hPa | 2.54 mm | 2.68 m/s, 335° | - | - |
| 1777961825 | 13.89° C | 86% | 969.4 hPa | 3.05 mm | 2.68 m/s, 296° | - | - |
| 1777961819 | 13.89° C | 85% | 969.3 hPa | 2.54 mm | 2.68 m/s, 308° | - | - |
| 1777961799 | 13.89° C | 86% | 969.4 hPa | 2.79 mm | 2.68 m/s, 315° | - | - |
| 1777961775 | 13.89° C | 85% | 969.3 hPa | 2.79 mm | 2.68 m/s, 319° | - | - |
| 1777961521 | 14.44° C | 84% | 969.3 hPa | 2.54 mm | 2.68 m/s, 319° | - | - |
| 1777961455 | 14.44° C | 83% | 969.4 hPa | 2.29 mm | 2.68 m/s, 324° | - | - |
| 1777961393 | 14.44° C | 83% | 969.5 hPa | 2.29 mm | 2.68 m/s, 311° | - | - |
| 1777961335 | 14.44° C | 83% | 969.6 hPa | 2.29 mm | 2.68 m/s, 282° | - | - |
| 1777961274 | 14.44° C | 82% | 969.7 hPa | 2.03 mm | 2.68 m/s, 331° | - | - |
| 1777961215 | 14.44° C | 82% | 969.7 hPa | 2.03 mm | 2.68 m/s, 294° | - | - |
| 1777961147 | 15° C | 81% | 969.7 hPa | 2.03 mm | 2.68 m/s, 319° | - | - |
| 1777961090 | 15° C | 81% | 969.8 hPa | 1.78 mm | 3.13 m/s, 323° | - | - |
| 1777961028 | 15° C | 80% | 969.7 hPa | 1.78 mm | 3.13 m/s, 289° | - | - |
| 1777960967 | 15° C | 80% | 969.7 hPa | 1.78 mm | 3.13 m/s, 359° | - | - |
| 1777960908 | 15.56° C | 79% | 969.7 hPa | 1.52 mm | 3.13 m/s, 307° | - | - |
| 1777960842 | 15.56° C | 78% | 969.6 hPa | 1.52 mm | 3.58 m/s, 340° | - | - |
| 1777960783 | 15.56° C | 77% | 969.4 hPa | 1.52 mm | 3.13 m/s, 307° | - | - |
| 1777960719 | 15.56° C | 77% | 969.4 hPa | 1.52 mm | 3.13 m/s, 302° | - | - |
| 1777960663 | 16.11° C | 76% | 969.3 hPa | 1.52 mm | 2.68 m/s, 315° | - | - |
| 1777960602 | 16.11° C | 76% | 969.2 hPa | 1.52 mm | 2.68 m/s, 293° | - | - |
* Rain latest hour (hover to see other rain measurements)
** Current wind speed in m/s (hover to see current wind gust speed)